Regional Weather Roundup
Issued by NWS

Home | Current Version | Previous Version | Text Only | Print | Product List | Glossary On
Versions: 1 2 3 4 5 6 7 8 9 10 11 12 13 14 15 16 17 18 19 20 21 22 23 24 25 26 27 28 29 30 31 32 33 34 35 36 37 38 39 40 41 42 43 44 45 46 47 48 49 50
000
ASUS44 KJAN 040210
RWRMS

MISSISSIPPI HOURLY WEATHER ROUNDUP
NATIONAL WEATHER SERVICE JACKSON MS
800 PM CST TUE MAR 03 2015

NOTE: "FAIR: INDICATES FEW OR NO CLOUDS BELOW 12,000 FEET WITH NO
SIGNIFICANT WEATHER AND/OR OBSTRUCTIONS TO VISIBILITY.

MSZ001>002-007>008-010>013-018>021-025>028-034>036-040300-
NORTHWEST MISSISSIPPI

CITY           SKY/WX    TMP DP  RH WIND       PRES   REMARKS
CLARKSDALE     CLOUDY    55  55 100 S7        29.92S VSB<1/4
CLEVELAND      FOG       59  59 100 CALM      29.93R VSB 1/4
GREENWOOD      CLEAR     65  63  93 SW6       29.94R
GREENVILLE     PTCLDY    62  60  93 S6        29.92S
OLIVE BRANCH   FOG       57  57 100 S9        29.91F VSB 1/2
OXFORD         FOG       57  57 100 S5        29.95S VSB 1/4
TUNICA         FOG       55  54  94 S7        29.91S VSB 1/4
$$

MSZ003>006-009-014>017-022>024-029>033-037>039-040300-
NORTHEAST MISSISSIPPI

CITY           SKY/WX    TMP DP  RH WIND       PRES   REMARKS
COLUMBUS AFB   MOCLDY    66  66 100 S8        29.97R
CORINTH        CLOUDY    63  61  94 S7        29.92S FOG
GOLDN TRIANGLE CLOUDY    68  63  83 S14G21    29.96
STARKVILLE     HVY RAIN  64  64 100 S5        29.98R
TUPELO         CLOUDY    64  62  93 SW7       29.95R
$$

MSZ040-058-040300-
CENTRAL MISSISSIPPI

CITY           SKY/WX    TMP DP  RH WIND       PRES   REMARKS
JACKSON INTL   LGT RAIN  69  67  93 SE12      29.97S
JACKSON HAWKNS CLOUDY    69  66  90 S10       29.97R
MERIDIAN KEY   CLOUDY    68  63  84 S15       30.01R
MERIDIAN NAS   CLOUDY    68  63  84 S7        30.01R
VICKSBURG      PTCLDY    67  64  90 SE7       29.94R
$$

MSZ059>079-040300-
SOUTH MISSISSIPPI

CITY           SKY/WX    TMP DP  RH WIND       PRES   REMARKS
BROOKHAVEN       N/A     68  68 100 S10       30.00R
HATTIESBURG    CLOUDY    70  64  81 S9        30.03R
MCCOMB         CLOUDY    68  65  90 S8        29.99S
NATCHEZ        MOCLDY    70  66  88 S10       29.97R
PINE BELT      CLOUDY    68  63  83 S9        30.03R
$$

MSZ080>082-040300-
COASTAL MISSISSIPPI

CITY           SKY/WX    TMP DP  RH WIND       PRES   REMARKS
BAY ST LOUIS   CLOUDY    66  63  88 SE8       30.04R
BILOXI         MOCLDY    66  66 100 SE9       30.05R
PASCAGOULA     MOCLDY    64  63  96 SE9       30.06R
GULFPORT       CLOUDY    65  63  93 SE10      30.04R
$$


USA.gov is the U.S. government's official web portal to all federal, state and local government web resources and services.